Satellite-Ground Cal/Val Site Overpasses Predictions

Prediction of Satellite NPP Overpassing Cal/Val Site: Antarctic Dome C

Ground Cal/Val Site Location: Latitude: -75.10, Longitude: 123.35; Satellite-Ground Site NADIR distance within 100 km.

Table of predicted overpasses for the next 14.0 days since TLE Epoch: 5/26/2013
Interval Starting Time Ending Time Minimum Distance Time Minimum Distance (km)
1 05/26/2013 14:54:34 05/26/2013 14:55:03 05/26/2013 14:54:49 26.55
2 05/27/2013 14:35:51 05/27/2013 14:36:08 05/27/2013 14:36:00 80.77
3 05/28/2013 07:37:25 05/28/2013 07:37:53 05/28/2013 07:37:39 35.91
4 05/29/2013 07:18:39 05/29/2013 07:18:59 05/29/2013 07:18:49 74.00
5 05/31/2013 15:00:54 05/31/2013 15:01:17 05/31/2013 15:01:06 63.26
6 06/01/2013 14:42:04 06/01/2013 14:42:30 06/01/2013 14:42:17 46.16
7 06/02/2013 07:43:45 06/02/2013 07:44:05 06/02/2013 07:43:55 70.84
8 06/03/2013 07:24:52 06/03/2013 07:25:19 06/03/2013 07:25:06 36.98
9 06/06/2013 14:48:17 06/06/2013 14:48:47 06/06/2013 14:48:32 10.68
